CW0003 Weather Reports


Display with metric or nautical units.
time (UTC)temp
F
wind
direction
speed
MPH
gust
MPH
rain 1hr
in
rain 24hr
in
rain mn
in
humidity
%
barometer
mb
20190123010136 14 0.0 0.0 0.00 0.01 0.01 60 1033.5
20190123004634 15 0.0 0.0 0.00 0.01 0.01 60 1033.6
20190123003114 15 0.0 0.0 0.00 0.01 0.01 61 1034.0
20190123002050 15 0.0 0.0 0.00 0.01 0.01 60 1033.8
20190123000029 16 0.0 0.0 0.00 0.01 0.01 59 1033.7
20190122234521 16 0.0 0.0 0.00 0.01 0.01 51 1033.5
20190122233021 17 0.0 0.0 0.00 0.01 0.01 48 1033.5
20190122231502 18 0.0 0.0 0.00 0.01 0.01 45 1033.7
20190122230219 19 0.0 0.0 0.00 0.01 0.01 42 1033.4
20190122224741 20 0.0 0.0 0.00 0.01 0.01 42 1033.1
20190122223128 22 0.0 0.0 0.00 0.01 0.01 38 1032.5
20190122221611 23 306 0.0 0.0 0.00 0.01 0.01 35 1032.5
20190122220056 24 308 0.0 0.0 0.00 0.01 0.01 33 1032.6
20190122214529 24 309 0.0 0.0 0.00 0.01 0.01 30 1032.8
20190122213035 25 297 0.0 0.0 0.00 0.01 0.01 29 1032.6
20190122211525 25 296 0.0 0.0 0.00 0.01 0.01 30 1032.6
20190122210007 25 294 0.0 0.0 0.00 0.01 0.01 26 1032.7
20190122204700 26 317 0.0 0.0 0.00 0.01 0.01 26 1032.5
20190122203158 25 338 0.0 0.0 0.00 0.01 0.01 26 1032.3
20190122201617 26 313 0.0 0.0 0.00 0.01 0.01 25 1032.1
20190122200201 26 324 0.0 0.0 0.00 0.01 0.01 25 1032.1
20190122194703 26 294 0.0 0.0 0.00 0.01 0.01 26 1032.0
20190122193150 25 331 0.0 0.0 0.00 0.01 0.01 26 1031.9
20190122191546 25 273 0.0 0.0 0.00 0.01 0.01 26 1031.9
20190122190047 25 114 0.0 0.0 0.01 0.01 0.01 26 1031.7
20190122184522 24 344 0.0 0.0 0.01 0.01 0.01 27 1031.6
20190122181908 24 17 0.0 0.0 0.01 0.01 0.01 25 1031.6
20190122180127 24 296 0.0 0.0 0.00 0.00 0.00 26 1031.7
20190122174602 24 290 0.0 0.0 0.00 0.00 0.00 25 1031.7
20190122173127 22 319 0.0 0.0 0.00 0.00 0.00 27 1031.8
20190122171551 21 263 0.0 0.0 0.00 0.00 0.00 27 1031.9
20190122170123 21 351 0.0 0.0 0.00 0.00 0.00 27 1032.0
20190122164616 21 324 0.0 0.0 0.00 0.00 0.00 28 1031.9
20190122163031 20 309 0.0 0.0 0.00 0.00 0.00 30 1032.1
20190122161508 19 295 0.0 0.0 0.00 0.00 0.00 29 1032.2
20190122160001 19 271 0.0 0.0 0.00 0.00 0.00 31 1032.1
20190122154722 18 286 0.0 0.0 0.00 0.00 0.00 33 1032.4
20190122153149 17 306 0.0 0.0 0.00 0.00 0.00 36 1032.3
20190122151643 16 65 0.0 0.0 0.00 0.00 0.00 38 1032.2
20190122150053 14 291 0.0 0.0 0.00 0.00 0.00 44 1032.1
20190122144551 12 237 0.0 0.0 0.00 0.00 0.00 47 1031.8
20190122143101 11 284 0.0 0.0 0.00 0.00 0.00 49 1031.5
20190122141532 9 246 0.0 0.0 0.00 0.00 0.00 53 1031.5
20190122140044 7 313 0.0 0.0 0.00 0.00 0.00 56 1031.5
20190122134519 4 293 0.0 0.0 0.00 0.00 0.00 63 1031.1
20190122131647 1 0.0 0.0 0.00 0.00 0.00 63 1030.7
20190122130241 0 0.0 0.0 0.00 0.00 0.00 1030.4
20190122124557 0 0.0 0.0 0.00 0.00 0.00 1030.4
20190122123156 0 0.0 0.0 0.00 0.00 0.00 1030.2
20190122121613 0 0.0 0.0 0.00 0.00 0.00 1029.4
20190122120103 0 0.0 0.0 0.00 0.00 0.00 1029.1
20190122114549 0 0.0 0.0 0.00 0.00 0.00 1028.9
20190122113042 0 0.0 0.0 0.00 0.00 0.00 1028.3
20190122111516 4 0.0 0.0 0.00 0.00 0.00 56 1028.0
20190122110003 4 0.0 0.0 0.00 0.00 0.00 56 1027.4
20190122104640 4 0.0 0.0 0.00 0.00 0.00 55 1027.0
20190122103217 5 0.0 0.0 0.00 0.00 0.00 54 1026.8
20190122101625 5 0.0 0.0 0.00 0.00 0.00 54 1026.6
20190122100138 4 0.0 0.0 0.00 0.00 0.00 54 1026.2
20190122094656 4 0.0 0.0 0.00 0.00 0.00 54 1025.6
20190122093118 4 0.0 0.0 0.00 0.00 0.00 54 1025.3
20190122091601 4 0.0 0.0 0.00 0.00 0.00 54 1024.7
20190122090020 4 0.0 0.0 0.00 0.00 0.00 53 1024.6
20190122084535 4 0.0 0.0 0.00 0.00 0.00 53 1024.2
20190122083026 5 0.0 0.0 0.00 0.00 0.00 52 1023.8
20190122081731 5 0.0 0.0 0.00 0.00 0.00 52 1023.7
20190122080119 5 0.0 0.0 0.00 0.00 0.00 51 1023.5
20190122074626 5 0.0 0.0 0.00 0.00 0.00 51 1022.9
20190122073201 5 0.0 0.0 0.00 0.00 0.00 52 1022.3
20190122071603 5 0.0 0.0 0.00 0.00 0.00 52 1021.9
20190122070042 4 0.0 0.0 0.00 0.00 0.00 54 1021.8
20190122064540 4 0.0 0.0 0.00 0.00 0.00 54 1021.6
20190122063027 3 0.0 0.0 0.00 0.00 0.00 54 1021.2
20190122061526 4 0.0 0.0 0.00 0.00 0.00 53 1020.9
20190122060022 4 0.0 0.0 0.00 0.00 0.00 53 1020.7
20190122054656 4 0.0 0.0 0.00 0.00 0.00 53 1020.5
20190122053208 3 0.0 0.0 0.00 0.00 0.00 53 1020.5
20190122051739 4 0.0 0.0 0.00 0.00 0.00 54 1020.1
20190122050120 4 0.0 0.0 0.00 0.00 0.00 55 1019.9
20190122044622 4 0.0 0.0 0.00 0.00 0.00 56 1019.8
20190122043037 4 0.0 0.0 0.00 0.00 0.00 55 1019.8
20190122041545 4 0.0 0.0 0.00 0.00 0.00 57 1019.3
20190122040048 4 0.0 0.0 0.00 0.00 0.00 57 1018.8
20190122034523 4 0.0 0.0 0.00 0.00 0.00 58 1018.8
20190122033047 4 0.0 0.0 0.00 0.00 0.00 59 1018.5
20190122031806 4 0.0 0.0 0.00 0.00 0.00 60 1018.0
20190122030128 4 0.0 0.0 0.00 0.00 0.00 62 1017.8
20190122024719 3 0.0 0.0 0.00 0.00 0.00 62 1017.6
20190122023131 3 0.0 0.0 0.00 0.00 0.00 64 1017.4
20190122021547 3 0.0 0.0 0.00 0.00 0.00 64 1017.2
20190122020036 3 0.0 0.0 0.00 0.00 0.00 64 1017.1
20190122014537 4 0.0 0.0 0.00 0.00 0.00 65 1017.0
20190122013036 3 0.0 0.0 0.00 0.00 0.00 65 1016.6
20190122011517 3 0.0 0.0 0.00 0.00 0.00 67 1016.5